Location: Danville Conservation Area
(38.8674°N, 91.5143°W)
Time: 00:28:18
(UTC-06:00)

Envisat - Pass Details

Date: 29 November 2021
Orbit: 764 x 766 km, 98.2° (Epoch: 23 January)

Event Time Altitude Azimuth Distance (km) Brightness Sun altitude
Rises 04:20:47 0° 23° (NNE) 3,239 6.5 -31.2°
Reaches altitude 10° 04:23:21 10° 34° (NE) 2,308 5.8 -30.7°
Maximum altitude 04:27:50 31° 96° (E) 1,323 4.7 -29.8°
Drops below altitude 10° 04:32:17 10° 158° (SSE) 2,293 5.7 -29.0°
Sets 04:34:49 0° 169° (SSE) 3,214 6.4 -28.5°
